Weather in Vlorë

Albania     40°27′32″N   19°28′57″E
temp.,
°C
wind,
m/s
gust,
m/s
humid.,
%
clouds,
%
prec.,
mm/h
press.,
hPa
HPBL,
m
10 april, sat
sat1023:00+8ene22575 0.0 102782
02:00+7e225779 0.0 102776
05:00+7ese22600 0.0 102667
08:00+10se2259100 0.0 1027248
11:00+13sw4452100 0.0 10271127
14:00+13sw555216 0.0 1026895
17:00+13sw445392 0.0 1025812
20:00+10ssw22604 0.0 1025223
11 april, sun
sun1123:00+9se22661 0.0 1025199
02:00+9ese227140 0.0 1025115
05:00+8ese2273100 0.0 1024116
08:00+11ese1266100 0.0 1024191
11:00+14sw43595 0.0 1025798
14:00+15sw44555 0.0 1024725
17:00+14sw5558100 0.0 1024536
20:00+12ssw23685 0.0 1024146
12 april, mon
mon1223:00+11se12735 0.0 1024105
02:00+11s2374100 0.0 1024170
05:00+11sse337085 0.0 1023164
08:00+12se126516 0.0 1023206
11:00+16sw445426 0.0 1023660
14:00+17ssw565467 0.0 1022634
17:00+16sw676079 0.0 1020404
20:00+13s457197 0.0 1021185
13 april, tue
tue1323:00+12s2370100 0.0 1021166
02:00+12se3368100 0.0 1021138
05:00+12sse346196 0.0 1019173
08:00+14se346297 0.0 1019201
11:00+16se4655100 0.1 1018497
14:00+17ssw8954100 0.1 1017615
17:00+16sse596186 0.0 1016417
20:00+14s585724 0.0 1015273
14 april, wed
wed1423:00+13ssw687598 0.6 1016442
02:00+11ssw2387100 4.9 1016152
05:00+11nw457533 1.8 1015347
08:00+12nw457521 3.3 1017758
11:00+12nw787297 2.7 10171069
14:00+12wnw876578 3.0 10191332
17:00+11nw6663100 0.1 10191292
20:00+10wnw346388 0.1 1019567